Content
SEND FEEDBACK

Daily
Averages
Monthly
Summary
United States of America

NEW YORK - CENTRAL PARK, NEW YORK


Home > North America > United States > New York
Elevation: 14 feet     Latitude: 40 47N     Longitude: 073 58W

WEATHER
 
SELECT A DAY
Number of Records: 148,305;   Date Range: 11/1/95 - 9/16/14
 
SHARE

PRINT THIS DATA

[ ← Previous Day ]
WEATHER ALMANAC - APRIL 18, 2013
[ Next Day → ]
[ °C ]   °F
Weather ElementAverageHighLow
Temperature54.6 °F57.9 °F (9:51 am)51.1 °F (4:51 am)
Dewpoint43.5 °F53.1 °F (11:51 pm)34 °F (9:51 am)
Humidity68 %97 % (11:51 pm)41 % (9:51 am)
Barometer30.26 in30.34 in (6:51 am)30.11 in (11:51 pm)
Wind Speed6.7 mph13.8 mph (3:11 pm)
Wind Gust24.2 mph (9:51 am)
Weather ElementAverage
Visibility9.4 mi
Wind DirectionESE (111.1 °)

Weather ElementTotal
Precipitation0.01 in
Heating Degree Days10.5 (Base 65)
Growing Degree Days4.5 (Base 50)
Averaged from 27 records on April 18, 2013
WEATHER CONDITIONS BREAKOUT
WIND DIRECTION BREAKOUT
WEATHER BY HOUR - APRIL 18, 2013
[ °C ]   °F
Local TimeTemperatureDewpointHumidityBarometerVisibilityWind DirectionWind SpeedGust SpeedPrecipitationEventsConditions
1:51 AM55.0 °F37.0 °F51 %30.29 in10.0 miCalmClear
2:51 AM54.0 °F37.0 °F53 %30.30 in10.0 miSSE (160°)6.9 mphClear
3:51 AM53.1 °F37.9 °F57 %30.31 in10.0 miSE (140°)6.9 mphMostly Cloudy
4:51 AM51.1 °F39.9 °F66 %30.32 in10.0 miCalmClear
5:51 AM51.1 °F41.0 °F68 %30.32 in10.0 miCalmPartly Cloudy
6:51 AM51.1 °F41.0 °F68 %30.34 in10.0 miSE (130°)4.6 mphClear
7:51 AM52.0 °F42.1 °F69 %30.34 in10.0 miVariable5.8 mphClear
8:51 AM55.9 °F37.0 °F49 %30.33 in10.0 miSE (140°)8.1 mph18.4 mphOvercast
9:51 AM57.9 °F34.0 °F41 %30.34 in10.0 miSSE (160°)9.2 mph24.2 mphOvercast
10:51 AM57.9 °F36.0 °F44 %30.34 in10.0 miSE (140°)11.5 mph24.2 mphOvercast
11:51 AM57.9 °F35.1 °F42 %30.34 in10.0 miCalmOvercast
12:51 PM57.0 °F39.0 °F51 %30.32 in10.0 miSouth (170°)8.1 mph17.3 mphOvercast
1:51 PM55.9 °F41.0 °F57 %30.30 in10.0 miSouth (170°)9.2 mph17.3 mphOvercast
2:51 PM57.0 °F42.1 °F57 %30.28 in10.0 miSSE (160°)8.1 mph21.9 mphOvercast
3:11 PM57.0 °F43.0 °F59 %30.30 in10.0 miSSE (160°)13.8 mph19.6 mphOvercast
3:51 PM55.9 °F44.1 °F64 %30.26 in10.0 miSE (140°)10.4 mph21.9 mphOvercast
4:51 PM54.0 °F45.0 °F72 %30.24 in10.0 miVariable6.9 mph18.4 mph0.01 inOvercast
5:51 PM53.1 °F48.0 °F83 %30.23 in8.0 miVariable3.5 mph19.6 mph0.00 inRainLight Rain
6:47 PM53.6 °F48.2 °F82 %30.22 in10.0 miSSE (160°)10.4 mph16.1 mph0.00 inOvercast
6:51 PM54.0 °F48.0 °F80 %30.20 in10.0 miSSE (150°)4.6 mph17.3 mph0.00 inOvercast
7:51 PM54.0 °F48.9 °F83 %30.19 in10.0 miSSE (160°)8.1 mphOvercast
8:51 PM55.0 °F50.0 °F83 %30.18 in10.0 miSouth (180°)6.9 mphOvercast
9:21 PM55.0 °F50.0 °F83 %30.19 in10.0 miSouth (170°)4.6 mphOvercast
9:51 PM54.0 °F51.1 °F90 %30.16 in9.0 miSSE (160°)13.8 mph24.2 mphOvercast
10:51 PM54.0 °F52.0 °F93 %30.13 in6.0 miVariable5.8 mphOvercast
11:07 PM54.0 °F52.0 °F93 %30.15 in6.0 miSouth (170°)8.1 mphOvercast
11:51 PM54.0 °F53.1 °F97 %30.11 in5.0 miSouth (180°)5.8 mphOvercast
Hourly data recorded from KNYC, located miles away from New York - Central Park, New York







STORIES FROM OUR PARTNERS